Starlink 32895

operational
NORAD ID: 63081 Int'l Des: 2025-037 Owner: SPXS Country: US Constellation: starlink
LEOCIRCULAR

Starlink 32895について

説明を読み込み中...

リアルタイム位置

3D地球を読み込み中...

次回通過

高度履歴

Altitude vs Time

uPlot chart will show altitude changes over time

軌道要素

1 63081U 25037E 25259.21662561 .00015536 00000-0 13057-2 0 9995
2 63081 70.0019 74.5281 0002729 272.6996 87.3851 14.98368153 32325
Epoch: Sep 16, 2025 • Age: 10 hours

現在のステータス

高度 577.2 km
速度 7.58 km/s
衛星直下点 35.42°N, 132.11°W
打ち上げ日 Feb 23, 2025
運用期間 0.5 years
タイプ internet

技術仕様

分類 Payload
質量 730.00 kg
乾燥質量 700.00 kg
総質量 730.00 kg
長さ 0.30 m
直径 4.10 m
スパン 29.00 m
形状 Box + pan
製造者 SPXS
バスタイプ Starlink V2M
フェーズステータス In Orbit
所有者/国 SPXS/US

大規模コンステレーション

Loading constellations...